CW8262 Weather Reports


time (UTC)temp
C
wind
direction
speed
KPH
gust
KPH
rain 1hr
cm
rain 24hr
cm
rain mn
cm
humidity
%
barometer
mb
20220525135208 4 90 0.0 1.6 0.00 11.10 0.28 85 1016.7
20220525130708 5 135 1.6 1.6 0.00 12.37 0.28 84 1016.7
20220525104211 6 45 0.0 0.0 0.00 12.65 0.28 84 1017.3
20220525103211 7 338 1.6 3.2 0.00 12.80 0.28 84 1017.3
20220525101208 7 112 1.6 3.2 0.00 12.93 0.28 84 1017.5
20220525095217 8 172 0.0 1.6 0.00 12.93 0.28 83 1017.4
20220525093208 8 180 0.0 0.0 0.00 12.93 0.28 83 1017.4
20220525092208 8 191 1.6 3.2 0.00 12.93 0.28 83 1017.1
20220525080709 10 151 1.6 8.0 0.00 12.93 0.28 83 1016.8
20220525063709 10 261 3.2 8.0 0.00 12.93 0.28 80 1016.4
20220525040605 13 233 9.7 19.3 0.00 12.93 0.28 75 1015.4
20220525032209 13 202 8.0 14.5 0.00 12.93 0.28 78 1014.9
20220525022711 13 234 12.9 20.9 0.00 12.93 0.28 78 1015.0
20220525010210 15 254 14.5 24.1 0.00 12.93 0.28 80 1014.8
20220524230709 11 4 4.8 8.0 0.00 12.93 0.28 73 1015.9
20220524214216 6 44 0.0 3.2 0.00 12.93 0.28 75 1015.5
20220524190208 5 78 0.0 3.2 0.00 12.93 0.28 77 1014.7
20220524182009 5 96 0.0 1.6 0.00 12.93 0.28 78 1014.8
20220524181110 5 174 0.0 1.6 0.00 12.93 0.28 78 1014.7
20220524171709 6 132 0.0 0.0 0.00 12.93 0.28 78 1014.8
20220524164711 6 98 0.0 1.6 0.00 12.93 0.28 77 1014.8
20220524160208 7 113 0.0 0.0 0.00 12.93 0.28 79 1015.2
20220524142710 8 19 1.6 3.2 0.00 14.35 0.28 77 1015.1
20220524141708 8 313 1.6 3.2 0.00 14.48 0.28 77 1015.2